Location: D�derode
(51.8092°N, 10.1065°E)
Time: 06:17:38
(UTC+00:00)

Cosmos 44 Rocket - Pass Details

Date: 01 December 2020
Orbit: 639 x 751 km, 65.1° (Epoch: 23 January)

Event Time Altitude Azimuth Distance (km) Brightness Sun altitude
Rises 15:53:02 0° 316° (NW) 3,141 6.9 -6.2°
Reaches altitude 10° 15:55:38 10° 327° (NNW) 2,235 6.0 -6.5°
Maximum altitude 16:00:12 32° 30° (NNE) 1,273 4.2 -7.1°
Drops below altitude 10° 16:04:50 10° 92° (E) 2,269 5.4 -7.8°
Enters shadow 16:06:23 - 99° (E) 2,800 5.9 -8.0°
